"Pseudo-MPEC" for P11WwLt

Created 2024 Aug 3 16:22:12 UT using Find_Orb

Click here for an explanation of pseudo-MPECs

 
 Astrometry: 
     P11WwLt* C2024 07 28.40008021 31 19.416+12 47 17.13   ~7SC7 22.06wXNEOCPF51
     P11WwLt  C2024 07 28.42278721 31 18.754+12 47 36.27   ~7SC7 22.51wXNEOCPF51
     P11WwLt  C2024 07 28.43414921 31 18.424+12 47 45.99   ~7SC7 22.31wXNEOCPF51
     P11WwLt  C2024 07 28.52238021 31 15.813+12 48 59.84   ~7SL7 21.68GVNEOCPF52
     P11WwLt  C2024 07 28.52320721 31 15.781+12 49 00.41   ~7SL7 21.61GVNEOCPF52
     P11WwLt KC2024 07 29.25242221 30 57.43 +12 59 00.1    ~7T6b 21.6 GVNEOCPH21
     P11WwLt KC2024 07 29.25531221 30 57.34 +12 59 02.6    ~7T6b 21.7 GVNEOCPH21
     P11WwLt KC2024 07 29.25820121 30 57.25 +12 59 04.9    ~7T6b 22.0 GVNEOCPH21
     P11WwLt  C2024 08 01.39128421 29 29.176+13 40 02.18   ~82I7 21.11GVNEOCPF52
     P11WwLt  C2024 08 01.41367121 29 28.417+13 40 18.90   ~82I7 20.99GVNEOCPF52
     P11WwLt  C2024 08 01.42486821 29 28.020+13 40 27.44   ~82I7 21.41GVNEOCPF52
     P11WwLt KC2024 08 03.20124821 28 32.74 +14 01 48.0    ~835b 21.6 GVNEOCPH21
     P11WwLt KC2024 08 03.20267021 28 32.68 +14 01 49.0    ~835b 22.1 GVNEOCPH21
     P11WwLt KC2024 08 03.21120521 28 32.38 +14 01 55.1    ~835b 21.5 GVNEOCPH21
     P11WwLt KC2024 08 03.21556721 28 32.21 +14 01 58.3    ~835b       VNEOCPH21

Station data:
(F51) Pan-STARRS 1, Haleakala  (N20.707234 W156.255910)  US/Hawaii.
   Observers J. Bulger, T. Lowe, A. Schultz, M. Willman. Measurers K.
   Chambers, S. Chastel, T. de Boer, L. Denneau, J. Fairlamb, H. Flewelling,
   M. Huber, C.-C. Lin, E. Magnier, Y. Ramanjooloo, R. Wainscoat, R. Weryk.
   1.8-m Ritchey-Chrétien + CCD.
(F52) Pan-STARRS 2, Haleakala  (N20.707382 W156.255910)  US/Hawaii.
   Observers J. Bulger, T. Dukes, T. Lowe, A. Schultz, M. Willman. Measurers
   K. Chambers, S. Chastel, T. de Boer, L. Denneau, J. Fairlamb, H.
   Flewelling, M. Huber, C.-C. Lin, E. Magnier, Y. Ramanjooloo, R. Wainscoat,
   R. Weryk. 1.8-m Ritchey-Chrétien + CCD.
(H21) Astronomical Research Observatory, Westfield  (N39.483054 W87.968270)
   US/Illinois.  Observer R. Holmes. Measurers S. Foglia, L. Buzzi, T.
   Linder, R. Holmes. 0.76-m f/3.0 astrograph + CCD0.81-m f/4.0 astrograph +
   CCD0.61-m f/4.5 astrograph + CCD0.40-m f/5.32 astrograph + CCD.

Orbital elements:  P11WwLt
   Perihelion 2024 Sep 30.55382 +/- 0.514 TT = 13:17:30 (JD 2460584.05382)
Epoch 2024 Aug  3.0 TT = JDT 2460525.5   Earth MOID: 0.6619      AutoNEOCP
M 346.41642637 +/- 0.17             (J2000 ecliptic)
n   0.23198441 +/- 0.00122          Peri.   99.69874 +/- 0.46
a   2.62319257 +/- 0.00921          Node   251.28902 +/- 0.15
e   0.3868208 +/- 0.00119           Incl.   12.55521 +/- 0.033
P   4.24859                H 20.42  G  0.15   U  8.2
q 1.60848702 +/- 0.00286    Q 3.63789812 +/- 0.0158
From 15 observations 2024 July 28-Aug. 3; mean residual 0".08
Residuals in arcseconds: 
240728 F51  .06-  .08-    240729 H21  .02+  .05+    240801 F52  .00   .04+    
240728 F51  .05-  .11-    240729 H21  .03-  .17+    240803 H21  .09+  .04-    
240728 F51  .01+  .05+    240729 H21  .08-  .10+    240803 H21  .05-  .05-    
240728 F52  .10+  .11+    240801 F52  .09-  .03+    240803 H21  .03+  .02+    
240728 F52  .01-  .01-    240801 F52  .11+  .10-    240803 H21  .16-  .15+    

Ephemerides (geocentric):
Date (UTC) HH   RA             Dec           delta  r     elong  mag " sig PA
---- --------  ------------   ------------  ------ ------ -----  --- --------
2024 08 03 16  21 28 17.400   +14 07 16.59  .73283 1.6796 147.5 21.8 .271  62
2024 08 03 17  21 28 16.041   +14 07 45.25  .73267 1.6795 147.5 21.8 .279  62
2024 08 03 18  21 28 14.681   +14 08 13.87  .73251 1.6794 147.6 21.8 .287  62
2024 08 03 19  21 28 13.318   +14 08 42.44  .73235 1.6793 147.6 21.8 .296  62
2024 08 03 20  21 28 11.955   +14 09 10.97  .73219 1.6792 147.6 21.8 .304  62
2024 08 03 21  21 28 10.589   +14 09 39.45  .73203 1.6791 147.6 21.8 .313  62
2024 08 03 22  21 28 09.222   +14 10 07.89  .73187 1.6790 147.6 21.8 .321  61
2024 08 03 23  21 28 07.853   +14 10 36.28  .73171 1.6789 147.6 21.8 .330  61
2024 08 04 00  21 28 06.482   +14 11 04.62  .73155 1.6788 147.6 21.8 .339  61
2024 08 04 01  21 28 05.110   +14 11 32.92  .73139 1.6787 147.7 21.8 .347  61
2024 08 04 02  21 28 03.736   +14 12 01.17  .73124 1.6786 147.7 21.8 .356  61
2024 08 04 03  21 28 02.360   +14 12 29.38  .73108 1.6785 147.7 21.8 .365  61
2024 08 04 04  21 28 00.983   +14 12 57.54  .73092 1.6785 147.7 21.8 .374  61
2024 08 04 05  21 27 59.604   +14 13 25.66  .73077 1.6784 147.7 21.8 .384  61
2024 08 04 06  21 27 58.223   +14 13 53.73  .73061 1.6783 147.7 21.8 .393  61
2024 08 04 07  21 27 56.841   +14 14 21.75  .73045 1.6782 147.7 21.8 .402  61
2024 08 04 08  21 27 55.457   +14 14 49.73  .73030 1.6781 147.7 21.8 .412  61
2024 08 04 09  21 27 54.072   +14 15 17.66  .73014 1.6780 147.8 21.8 .421  61
2024 08 04 10  21 27 52.685   +14 15 45.55  .72999 1.6779 147.8 21.8 .431  60
2024 08 04 11  21 27 51.296   +14 16 13.39  .72983 1.6778 147.8 21.8 .441  60
2024 08 04 12  21 27 49.906   +14 16 41.18  .72968 1.6777 147.8 21.8 .450  60
2024 08 04 13  21 27 48.514   +14 17 08.93  .72952 1.6776 147.8 21.8 .460  60
2024 08 04 14  21 27 47.120   +14 17 36.63  .72937 1.6775 147.8 21.8 .470  60
2024 08 04 15  21 27 45.725   +14 18 04.29  .72921 1.6774 147.8 21.8 .480  60
2024 08 04 16  21 27 44.328   +14 18 31.90  .72906 1.6773 147.9 21.8 .490  60
2024 08 04 17  21 27 42.930   +14 18 59.46  .72891 1.6772 147.9 21.8 .501  60
2024 08 04 18  21 27 41.530   +14 19 26.97  .72875 1.6771 147.9 21.8 .511  60
2024 08 04 19  21 27 40.129   +14 19 54.44  .72860 1.6770 147.9 21.8 .521  60
2024 08 04 20  21 27 38.726   +14 20 21.87  .72845 1.6769 147.9 21.8 .532  60
2024 08 04 21  21 27 37.321   +14 20 49.24  .72829 1.6768 147.9 21.8 .542  60
2024 08 04 22  21 27 35.915   +14 21 16.57  .72814 1.6767 147.9 21.8 .553  60
2024 08 04 23  21 27 34.508   +14 21 43.85  .72799 1.6766 147.9 21.8 .564  60
2024 08 05 00  21 27 33.099   +14 22 11.09  .72784 1.6765 148.0 21.8 .575  59
2024 08 05 01  21 27 31.688   +14 22 38.28  .72769 1.6764 148.0 21.8 .586  59
2024 08 05 02  21 27 30.276   +14 23 05.42  .72754 1.6763 148.0 21.8 .597  59
2024 08 05 03  21 27 28.862   +14 23 32.52  .72739 1.6762 148.0 21.8 .608  59
2024 08 05 04  21 27 27.447   +14 23 59.57  .72724 1.6761 148.0 21.8 .619  59
2024 08 05 05  21 27 26.030   +14 24 26.57  .72709 1.6760 148.0 21.8 .630  59
2024 08 05 06  21 27 24.612   +14 24 53.53  .72694 1.6759 148.0 21.8 .641  59
2024 08 05 07  21 27 23.192   +14 25 20.43  .72679 1.6758 148.0 21.8 .653  59
2024 08 05 08  21 27 21.771   +14 25 47.29  .72664 1.6757 148.1 21.8 .664  59
2024 08 05 09  21 27 20.349   +14 26 14.11  .72649 1.6756 148.1 21.8 .676  59
2024 08 05 10  21 27 18.925   +14 26 40.88  .72634 1.6755 148.1 21.8 .688  59
2024 08 05 11  21 27 17.499   +14 27 07.60  .72619 1.6755 148.1 21.8 .700  59
2024 08 05 12  21 27 16.072   +14 27 34.27  .72604 1.6754 148.1 21.8 .711  59
2024 08 05 13  21 27 14.644   +14 28 00.89  .72589 1.6753 148.1 21.8 .723  59
2024 08 05 14  21 27 13.214   +14 28 27.47  .72575 1.6752 148.1 21.8 .735  59
2024 08 05 15  21 27 11.782   +14 28 54.00  .72560 1.6751 148.1 21.8 .748  59